Total_Precipitation_Accumulation
0.23 0.19 0.23 0.26 0.23 0.26 0.39 0.38 0.30 0.09 0.06 0.08 0.08 0.08 0.08 0.08 0.08 0.08 0.07 0.07 0.06 0.06 0.08 0.11 0.12 0.16 0.20 0.21 0.19 0.19 0.23 0.34 0.48 0.57 0.66 0.76 0.82 0.86 0.88 0.87 0.77 0.73 0.70 0.69
0.23 0.13 0.19 0.20 0.14 0.14 0.16 0.15 0.13 0.07 0.05 0.03 0.04 0.06 0.07 0.08 0.09 0.10 0.09 0.08 0.07 0.06 0.07 0.08 0.09 0.12 0.17 0.21 0.19 0.17 0.19 0.22 0.35 0.48 0.60 0.70 0.77 0.86 0.90 0.91 0.89 0.81 0.72 0.66
0.42 0.16 0.34 0.37 0.16 0.12 0.12 0.11 0.12 0.13 0.11 0.06 0.03 0.04 0.07 0.09 0.11 0.12 0.11 0.10 0.08 0.07 0.07 0.07 0.07 0.09 0.15 0.19 0.20 0.18 0.17 0.19 0.26 0.35 0.49 0.60 0.69 0.79 0.91 0.91 0.89 0.87 0.77 0.65
0.71 0.50 0.68 0.31 0.12 0.11 0.13 0.15 0.15 0.16 0.12 0.08 0.06 0.05 0.08 0.11 0.13 0.11 0.11 0.10 0.09 0.07 0.07 0.07 0.06 0.08 0.13 0.16 0.18 0.19 0.17 0.17 0.20 0.26 0.36 0.50 0.65 0.73 0.82 0.91 0.89 0.83 0.79 0.70
1.04 0.75 0.39 0.13 0.11 0.16 0.18 0.19 0.17 0.15 0.11 0.07 0.04 0.04 0.07 0.08 0.10 0.11 0.10 0.10 0.08 0.07 0.07 0.06 0.06 0.07 0.10 0.12 0.15 0.16 0.16 0.16 0.16 0.18 0.27 0.41 0.53 0.65 0.73 0.83 0.86 0.83 0.75 0.66
1.11 0.81 0.35 0.15 0.10 0.11 0.15 0.23 0.15 0.14 0.13 0.10 0.07 0.09 0.09 0.08 0.08 0.09 0.08 0.09 0.08 0.07 0.07 0.06 0.06 0.08 0.10 0.11 0.12 0.13 0.14 0.13 0.13 0.15 0.19 0.31 0.43 0.54 0.67 0.75 0.81 0.81 0.77 0.66
0.81 0.64 0.26 0.13 0.10 0.11 0.25 0.30 0.17 0.15 0.14 0.13 0.13 0.13 0.10 0.07 0.07 0.08 0.08 0.08 0.08 0.07 0.07 0.07 0.07 0.10 0.13 0.11 0.11 0.14 0.14 0.13 0.11 0.12 0.15 0.22 0.36 0.49 0.65 0.74 0.79 0.78 0.71 0.66
0.54 0.63 0.32 0.14 0.14 0.25 0.28 0.17 0.15 0.13 0.12 0.11 0.10 0.08 0.06 0.06 0.07 0.07 0.07 0.08 0.09 0.09 0.07 0.07 0.08 0.12 0.16 0.14 0.13 0.14 0.13 0.13 0.12 0.11 0.13 0.19 0.34 0.47 0.59 0.71 0.79 0.79 0.70 0.68
0.38 0.28 0.16 0.16 0.19 0.20 0.18 0.16 0.14 0.12 0.10 0.09 0.09 0.07 0.06 0.06 0.06 0.06 0.07 0.07 0.09 0.11 0.09 0.08 0.10 0.14 0.16 0.15 0.14 0.14 0.14 0.13 0.13 0.13 0.14 0.19 0.29 0.43 0.59 0.65 0.74 0.78 0.67 0.62
0.26 0.15 0.12 0.12 0.14 0.15 0.15 0.14 0.12 0.12 0.11 0.10 0.09 0.08 0.07 0.06 0.06 0.07 0.08 0.08 0.09 0.10 0.11 0.12 0.13 0.15 0.16 0.15 0.16 0.15 0.14 0.13 0.14 0.16 0.18 0.21 0.27 0.37 0.51 0.60 0.69 0.77 0.68 0.56
0.21 0.13 0.12 0.10 0.09 0.09 0.10 0.10 0.10 0.09 0.10 0.10 0.09 0.07 0.07 0.07 0.07 0.08 0.09 0.08 0.09 0.11 0.12 0.14 0.16 0.16 0.15 0.15 0.16 0.15 0.15 0.15 0.16 0.19 0.21 0.25 0.31 0.37 0.42 0.49 0.62 0.75 0.67 0.60
0.18 0.12 0.14 0.10 0.06 0.05 0.06 0.08 0.08 0.08 0.07 0.08 0.08 0.07 0.05 0.06 0.08 0.09 0.10 0.09 0.10 0.11 0.12 0.15 0.18 0.17 0.16 0.17 0.17 0.17 0.17 0.18 0.20 0.22 0.24 0.27 0.34 0.41 0.46 0.48 0.52 0.52 0.56 0.59
0.09 0.08 0.08 0.07 0.06 0.05 0.04 0.04 0.05 0.07 0.06 0.06 0.06 0.06 0.05 0.05 0.07 0.10 0.12 0.10 0.10 0.11 0.13 0.16 0.18 0.20 0.18 0.18 0.18 0.19 0.20 0.21 0.24 0.25 0.25 0.27 0.32 0.40 0.47 0.51 0.53 0.51 0.52 0.54
0.05 0.07 0.07 0.05 0.05 0.04 0.03 0.03 0.04 0.05 0.05 0.05 0.06 0.06 0.05 0.04 0.06 0.10 0.11 0.11 0.11 0.11 0.14 0.17 0.19 0.22 0.21 0.19 0.20 0.21 0.22 0.26 0.28 0.28 0.28 0.30 0.35 0.40 0.46 0.51 0.56 0.57 0.57 0.59
0.05 0.06 0.06 0.04 0.05 0.04 0.04 0.04 0.05 0.05 0.05 0.06 0.06 0.06 0.06 0.06 0.06 0.09 0.11 0.12 0.14 0.13 0.14 0.17 0.19 0.23 0.24 0.23 0.23 0.24 0.25 0.28 0.31 0.33 0.32 0.34 0.38 0.43 0.46 0.49 0.50 0.53 0.57 0.70
0.07 0.06 0.06 0.06 0.06 0.06 0.05 0.05 0.06 0.06 0.06 0.06 0.06 0.06 0.06 0.06 0.07 0.09 0.13 0.15 0.16 0.16 0.16 0.16 0.17 0.21 0.25 0.26 0.27 0.27 0.27 0.34 0.36 0.38 0.37 0.39 0.42 0.46 0.49 0.53 0.53 0.53 0.53 0.58
0.14 0.10 0.08 0.08 0.07 0.07 0.06 0.06 0.06 0.07 0.08 0.07 0.07 0.07 0.07 0.07 0.07 0.09 0.13 0.16 0.18 0.18 0.16 0.15 0.16 0.20 0.25 0.27 0.29 0.31 0.31 0.34 0.40 0.41 0.40 0.43 0.47 0.51 0.54 0.59 0.57 0.53 0.48 0.49
0.15 0.13 0.12 0.13 0.13 0.11 0.08 0.07 0.07 0.08 0.09 0.09 0.08 0.08 0.09 0.09 0.09 0.11 0.16 0.18 0.21 0.21 0.18 0.16 0.17 0.21 0.24 0.26 0.30 0.32 0.34 0.36 0.41 0.43 0.46 0.49 0.53 0.56 0.59 0.61 0.57 0.53 0.50 0.53
0.13 0.13 0.13 0.13 0.14 0.16 0.13 0.10 0.09 0.09 0.10 0.10 0.11 0.10 0.10 0.11 0.11 0.14 0.19 0.23 0.25 0.24 0.21 0.20 0.22 0.23 0.24 0.29 0.36 0.33 0.36 0.41 0.46 0.48 0.50 0.55 0.58 0.55 0.57 0.60 0.58 0.53 0.54 0.55
0.14 0.14 0.15 0.14 0.14 0.16 0.16 0.12 0.10 0.10 0.10 0.12 0.13 0.13 0.13 0.13 0.15 0.18 0.22 0.25 0.25 0.25 0.24 0.26 0.25 0.26 0.28 0.33 0.38 0.36 0.39 0.44 0.51 0.54 0.55 0.55 0.59 0.59 0.58 0.61 0.61 0.58 0.55 0.53
0.18 0.18 0.18 0.18 0.16 0.14 0.16 0.16 0.15 0.14 0.13 0.14 0.16 0.17 0.18 0.19 0.19 0.20 0.25 0.26 0.25 0.26 0.27 0.30 0.30 0.32 0.37 0.40 0.42 0.41 0.44 0.48 0.54 0.59 0.61 0.61 0.63 0.62 0.62 0.63 0.64 0.59 0.55 0.54
0.23 0.23 0.23 0.22 0.20 0.17 0.17 0.19 0.20 0.21 0.19 0.18 0.19 0.21 0.23 0.23 0.21 0.20 0.23 0.29 0.31 0.34 0.32 0.30 0.33 0.39 0.43 0.46 0.43 0.43 0.46 0.49 0.56 0.61 0.63 0.66 0.68 0.69 0.67 0.66 0.65 0.60 0.56 0.55
0.30 0.29 0.29 0.28 0.26 0.26 0.24 0.24 0.27 0.29 0.28 0.26 0.27 0.28 0.29 0.28 0.26 0.27 0.28 0.30 0.34 0.38 0.37 0.36 0.41 0.47 0.50 0.48 0.46 0.47 0.50 0.54 0.59 0.66 0.68 0.70 0.72 0.71 0.71 0.69 0.65 0.62 0.61 0.60
0.34 0.34 0.34 0.32 0.30 0.30 0.31 0.31 0.32 0.34 0.34 0.35 0.35 0.36 0.36 0.35 0.31 0.31 0.36 0.40 0.41 0.43 0.42 0.43 0.48 0.52 0.56 0.53 0.52 0.54 0.59 0.62 0.67 0.73 0.73 0.74 0.75 0.73 0.71 0.71 0.69 0.63 0.60 0.59
0.37 0.36 0.35 0.34 0.34 0.37 0.41 0.40 0.39 0.38 0.37 0.39 0.39 0.39 0.41 0.42 0.43 0.41 0.42 0.44 0.46 0.47 0.46 0.47 0.51 0.57 0.58 0.59 0.59 0.61 0.65 0.70 0.79 0.85 0.81 0.78 0.76 0.75 0.72 0.71 0.68 0.64 0.62 0.60
0.40 0.41 0.42 0.43 0.44 0.46 0.48 0.47 0.47 0.46 0.44 0.43 0.42 0.43 0.45 0.45 0.45 0.46 0.47 0.47 0.48 0.51 0.50 0.50 0.52 0.58 0.63 0.65 0.65 0.66 0.71 0.78 0.86 0.85 0.78 0.75 0.75 0.75 0.74 0.72 0.66 0.62 0.61 0.60
0.42 0.43 0.44 0.44 0.45 0.49 0.53 0.54 0.54 0.55 0.54 0.51 0.51 0.51 0.51 0.50 0.49 0.49 0.49 0.48 0.48 0.51 0.55 0.58 0.61 0.66 0.72 0.73 0.73 0.74 0.78 0.81 0.83 0.85 0.83 0.80 0.78 0.76 0.73 0.71 0.66 0.64 0.62 0.59